Location: Strawberry
(45.6646°N, 111.9596°W)
Time: 22:11:06
(UTC+00:00)

ISS - Pass Details

Date: 23 August 2022
Orbit: 414 x 417 km, 51.6° (Epoch: 24 September)

Event Time Altitude Azimuth Distance (km) Brightness Sun altitude
Exits shadow 11:55:56 - 205° (SSW) 1,920 -0.9 -7.7°
Reaches altitude 10° 11:57:06 10° 197° (SSW) 1,493 -1.3 -7.5°
Maximum altitude 11:59:57 26° 139° (SE) 865 -2.0 -7.1°
Drops below altitude 10° 12:02:48 10° 81° (E) 1,499 0.6 -6.6°
Sets 12:05:06 0° 68° (ENE) 2,364 2.9 -6.2°
